Regional Weather Roundup
Issued by NWS

Home | Current Version | Previous Version | Graphics & Text | Print | Product List | Glossary On
Versions: 1 2 3 4 5 6 7 8 9 10 11 12 13 14 15 16 17 18 19 20 21 22 23 24 25 26 27 28 29 30 31 32 33 34 35 36 37 38 39 40 41 42 43 44 45 46 47 48 49 50
000
ASUS43 KIND 181809
RWRIN

WEATHER ROUNDUP FOR INDIANA
NATIONAL WEATHER SERVICE INDIANAPOLIS IN
200 PM EDT THU SEP 18 2014

NOTE: "FAIR" INDICATES FEW OR NO CLOUDS BELOW 12,000 FEET WITH NO
SIGNIFICANT WEATHER AND/OR OBSTRUCTIONS TO VISIBILITY.

* - STATION DOES NOT REPORT WEATHER SUCH AS PRECIPITATION OR FOG.

+ - STATION NOT QUALITY CONTROLLED BY THE NATIONAL WEATHER SERVICE.
    USE DATA WITH CAUTION...ESPECIALLY DEWPOINT AND RELATIVE
    HUMIDITY OBSERVATIONS.

INZ001>003-010>013-019-020-181900-
NORTHWEST INDIANA

CITY           SKY/WX    TMP DP  RH WIND       PRES   REMARKS
GARY /AIRPORT/ MOSUNNY   70  48  46 NE10      30.15S
KNOX *+        SUNNY     68  47  47 E5        30.13F
LA PORTE +     SUNNY     68  47  46 E8        30.15S
6HR MIN TEMP:  43; 6HR MAX TEMP:  68;

MICHIGAN CITY+ SUNNY     68  48  49 N6        30.15S
MONTICELLO +   SUNNY     69  48  47 NE8       30.11F
RENSSELAER +   SUNNY     70  46  43 NE10      30.12F
VALPARAISO     SUNNY     70  47  43 E8        30.14F
6HR MIN TEMP:  44; 6HR MAX TEMP:  70;


$$

LMZ046-743>745-181900-
SOUTHERN LAKE MICHIGAN

STATION/POSITION TIME  TEMP WIND        PRES
                       AIR  DIR/SP/G
                 (UTC) (F)  (DEG/KT/KT) (MB)
MICHIGAN CITY    1800   65  330/ 10/ 12   N/A

$$

INZ004-005-014>016-021>024-181900-
NORTH CENTRAL INDIANA

CITY           SKY/WX    TMP DP  RH WIND       PRES   REMARKS
ELKHART        SUNNY     68  46  45 N6        30.15F
GOSHEN         SUNNY     70  48  45 E5        30.14F
6HR MIN TEMP:  41; 6HR MAX TEMP:  70;

LOGANSPORT +   SUNNY     68  45  42 E8        30.13S
ROCHESTER +    SUNNY     72  46  40 E8        30.13F
SOUTH BEND     SUNNY     70  46  42 NE5       30.15S
6HR MIN TEMP:  44; 6HR MAX TEMP:  70;

WARSAW +       SUNNY     68  48  49 E6        30.14S

$$

INZ006>009-017-018-025>027-181900-
NORTHEAST INDIANA

CITY           SKY/WX    TMP DP  RH WIND       PRES   REMARKS
ANGOLA *+        N/A     70  48  46 NE3       30.14S
AUBURN +       SUNNY     70  45  40 NE6       30.14F
FORT WAYNE     MOSUNNY   68  50  52 N8        30.13F
6HR MIN TEMP:  46; 6HR MAX TEMP:  68;

HUNTINGTON +   SUNNY     68  50  53 NE6       30.13R
6HR MIN TEMP:  43; 6HR MAX TEMP:  68;


$$

INZ028-029-035-036-043>045-051>053-181900-
WEST CENTRAL INDIANA

CITY           SKY/WX    TMP DP  RH WIND       PRES   REMARKS
GREENCASTLE +  SUNNY     68  48  49 E5        30.10S
LAFAYETTE      SUNNY     68  46  45 E10       30.11F
6HR MIN TEMP:  44; 6HR MAX TEMP:  68;

TERRE HAUTE    SUNNY     72  48  42 VRB5      30.09F
6HR MIN TEMP:  47; 6HR MAX TEMP:  72;


$$

INZ030>032-037>040-046>048-054>057-064-065-181900-
CENTRAL INDIANA

CITY           SKY/WX    TMP DP  RH WIND       PRES   REMARKS
CP ATTERBURY + SUNNY     70  48  46 SE7       30.10F
COLUMBUS       SUNNY     72  46  40 E7        30.09F
FRANKFORT +    SUNNY     71  46  40 E7        30.12S
INDIANAPOLIS   MOSUNNY   69  49  48 SE6       30.10S
6HR MIN TEMP:  51; 6HR MAX TEMP:  70;

-EAGLE CREEK   SUNNY     69  47  45 CALM      30.10S
6HR MIN TEMP:  52; 6HR MAX TEMP:  70;

KOKOMO *+      SUNNY     70  50  49 NE12      30.12R
MARION +       SUNNY     69  46  44 E8        30.13R
MT COMFORT *+  SUNNY     72  34  25 E7        30.11S
SHELBYVILLE    SUNNY     73  45  36 VRB5      30.09S
6HR MIN TEMP:  48; 6HR MAX TEMP:  74;

ZIONSVILLE +   SUNNY     69  47  46 CALM      30.11F
6HR MIN TEMP:  45; 6HR MAX TEMP:  69;


$$

INZ033-034-041-042-049-050-058-059-181900-
EAST CENTRAL INDIANA

CITY           SKY/WX    TMP DP  RH WIND       PRES   REMARKS
MUNCIE         SUNNY     70  47  43 VRB7G16   30.11R
6HR MIN TEMP:  44; 6HR MAX TEMP:  70;


$$

INZ060-061-067>069-081>083-085>088-181900-
SOUTHWEST INDIANA

CITY           SKY/WX    TMP DP  RH WIND       PRES   REMARKS
EVANSVILLE     MOSUNNY   71  53  52 E6        30.07S
6HR MIN TEMP:  59; 6HR MAX TEMP:  72;

WASHINGTON +   MOSUNNY   71  53  52 NE9       30.08S
6HR MIN TEMP:  49; 6HR MAX TEMP:  71;


$$

INZ062-063-066-070>080-084-089>092-181900-
SOUTH CENTRAL AND SOUTHEAST INDIANA

CITY           SKY/WX    TMP DP  RH WIND       PRES   REMARKS
BLOOMINGTON    PTSUNNY   70  48  45 NE6       30.09F
6HR MIN TEMP:  49; 6HR MAX TEMP:  72;

SEYMOUR +      SUNNY     73  50  43 E8        30.08S

$$



USA.gov is the U.S. government's official web portal to all federal, state and local government web resources and services.